This is the latest recevied weather packets stored in our database for station/object NEWPRT. If no packets are shown the sender has not sent any weather packets the latest 10 day(s).
| Time | Temp. | Humidity | Pressure | Rain* | Wind** | Luminosity | Snow |
|---|---|---|---|---|---|---|---|
| 1777687344 | - | 72% | 1017.8 hPa | 0 mm | - | - | - |
| 1777687020 | - | 75% | 1017.8 hPa | 0 mm | - | - | - |
| 1777686697 | - | 71% | 1017.6 hPa | 0 mm | - | - | - |
| 1777686374 | - | 74% | 1017.8 hPa | 0 mm | - | - | - |
| 1777686051 | - | 74% | 1017.9 hPa | 0 mm | - | - | - |
| 1777685728 | - | 73% | 1017.8 hPa | 0 mm | - | - | - |
| 1777685405 | - | 71% | 1017.8 hPa | 0 mm | - | - | - |
| 1777685082 | - | 73% | 1017.8 hPa | 0 mm | - | - | - |
| 1777684759 | - | 73% | 1017.6 hPa | 0 mm | - | - | - |
| 1777684436 | - | 74% | 1017.9 hPa | 0 mm | - | - | - |
| 1777684113 | - | 74% | 1017.8 hPa | 0 mm | - | - | - |
| 1777683790 | - | 74% | 1018 hPa | 0 mm | - | - | - |
| 1777683467 | - | 75% | 1017.9 hPa | 0 mm | - | - | - |
| 1777683144 | - | 72% | 1017.9 hPa | 0 mm | - | - | - |
| 1777682821 | - | 71% | 1017.9 hPa | 0 mm | - | - | - |
| 1777682498 | - | 71% | 1018 hPa | 0 mm | - | - | - |
| 1777682175 | - | 71% | 1017.9 hPa | 0 mm | - | - | - |
| 1777681852 | - | 70% | 1018 hPa | 0 mm | - | - | - |
| 1777681530 | - | 70% | 1017.9 hPa | 0 mm | - | - | - |
| 1777681206 | - | 70% | 1017.9 hPa | 0 mm | - | - | - |
| 1777680883 | - | 69% | 1018 hPa | 0 mm | - | - | - |
| 1777680560 | - | 69% | 1018.2 hPa | 0 mm | - | - | - |
| 1777680237 | - | 69% | 1018.3 hPa | 0 mm | - | - | - |
| 1777679914 | - | 69% | 1018.2 hPa | 0 mm | - | - | - |
| 1777679592 | - | 69% | 1018.2 hPa | 0 mm | - | - | - |
* Rain latest hour (hover to see other rain measurements)
** Current wind speed in m/s (hover to see current wind gust speed)